TimeMST,TemperatureF,Dew PointF,Humidity,Sea Level PressureIn,VisibilityMPH,Wind Direction,Wind SpeedMPH,Gust SpeedMPH,PrecipitationIn,Events,Conditions,WindDirDegrees,DateUTC
12:53 AM,57.0,21.0,25,29.61,10.0,West,5.8,-,N/A,,Clear,270,2013-03-04 07:53:00
1:53 AM,55.9,23.0,28,29.60,10.0,SW,13.8,-,N/A,,Clear,220,2013-03-04 08:53:00
2:53 AM,54.0,23.0,30,29.58,10.0,WSW,12.7,-,N/A,,Clear,240,2013-03-04 09:53:00
3:53 AM,51.1,24.1,35,29.60,10.0,SW,11.5,-,N/A,,Clear,230,2013-03-04 10:53:00
4:53 AM,57.0,21.0,25,29.60,10.0,WSW,16.1,-,N/A,,Clear,250,2013-03-04 11:53:00
5:53 AM,51.1,21.9,32,29.64,10.0,SW,10.4,-,N/A,,Clear,230,2013-03-04 12:53:00
6:53 AM,54.0,21.9,29,29.64,10.0,WSW,11.5,-,N/A,,Clear,240,2013-03-04 13:53:00
7:53 AM,60.1,21.0,22,29.64,10.0,WSW,15.0,-,N/A,,Clear,240,2013-03-04 14:53:00
8:53 AM,64.0,19.0,18,29.63,10.0,West,23.0,31.1,N/A,,Clear,260,2013-03-04 15:53:00
9:53 AM,68.0,19.9,16,29.61,10.0,WSW,21.9,31.1,N/A,,Clear,250,2013-03-04 16:53:00
10:53 AM,72.0,18.0,13,29.60,9.0,West,35.7,44.9,N/A,,Clear,270,2013-03-04 17:53:00
11:53 AM,73.0,16.0,11,29.58,7.0,West,34.5,47.2,N/A,,Clear,280,2013-03-04 18:53:00
12:53 PM,73.0,17.1,12,29.55,10.0,WNW,31.1,38.0,N/A,,Clear,300,2013-03-04 19:53:00
1:53 PM,73.9,16.0,11,29.53,10.0,West,28.8,36.8,N/A,,Partly Cloudy,280,2013-03-04 20:53:00
2:53 PM,73.0,17.1,12,29.54,10.0,West,27.6,41.4,N/A,,Clear,270,2013-03-04 21:53:00
3:53 PM,72.0,16.0,12,29.57,8.0,West,31.1,38.0,N/A,,Clear,280,2013-03-04 22:53:00
4:53 PM,70.0,17.1,13,29.59,10.0,WNW,23.0,32.2,N/A,,Partly Cloudy,300,2013-03-04 23:53:00
5:53 PM,61.0,30.9,32,29.69,9.0,NE,24.2,27.6,N/A,,Partly Cloudy,50,2013-03-05 00:53:00
6:00 PM,60.8,32.0,34,29.79,10.0,NE,21.9,27.6,N/A,,Scattered Clouds,50,2013-03-05 01:00:00
6:53 PM,55.9,34.0,44,29.78,10.0,NE,23.0,33.4,N/A,,Clear,50,2013-03-05 01:53:00
7:53 PM,50.0,27.0,41,29.91,10.0,NE,27.6,36.8,N/A,,Clear,50,2013-03-05 02:53:00
8:08 PM,48.2,26.6,43,30.03,2.5,NE,42.6,51.8,N/A,,Haze,40,2013-03-05 03:08:00
8:11 PM,46.4,26.6,46,30.04,1.8,NNE,36.8,51.8,N/A,,Haze,30,2013-03-05 03:11:00
8:27 PM,41.0,24.8,53,30.07,1.8,NNE,38.0,49.5,N/A,,Haze,30,2013-03-05 03:27:00
8:36 PM,41.0,24.8,53,30.09,2.5,NNE,38.0,46.0,N/A,,Haze,30,2013-03-05 03:36:00
8:45 PM,39.2,24.8,56,30.10,4.0,NNE,31.1,43.7,N/A,,Haze,30,2013-03-05 03:45:00
8:53 PM,39.9,24.1,53,30.05,4.0,NNE,36.8,47.2,N/A,,Haze,30,2013-03-05 03:53:00
9:04 PM,37.4,24.8,60,30.13,2.5,NNE,36.8,49.5,N/A,,Haze,30,2013-03-05 04:04:00
9:12 PM,37.4,24.8,60,30.14,4.0,NE,32.2,46.0,N/A,,Haze,40,2013-03-05 04:12:00
9:26 PM,37.4,24.8,60,30.17,9.0,NE,28.8,38.0,N/A,,Mostly Cloudy,40,2013-03-05 04:26:00
9:53 PM,37.9,25.0,60,30.12,10.0,NE,26.5,33.4,N/A,,Overcast,40,2013-03-05 04:53:00
10:53 PM,37.0,23.0,57,30.14,10.0,NE,24.2,31.1,N/A,,Overcast,40,2013-03-05 05:53:00